Tracking 20037 objects as of 21-Nov-2019
Live streaming from Space Station
objects crossing your sky now

SL-16 DEB


SL-16 DEB is no longer on orbit


NORAD ID: 29103
Int'l Code: 1995-058L
Perigee: N/A
Apogee: N/A
Inclination: N/A
Period: N/A
Semi major axis: N/A
RCS: N/A
Launch date: October 31, 1995
Source: Commonwealth of Independent States (former USSR) (CIS)
Launch site: TYURATAM MISSILE AND SPACE COMPLEX (TTMTR)
Decay date: 2013-09-13

Note: This is SATELLITE DEBRIS
aabbcc
Your satellite tracking list
Your tracking list is empty




NASA's NSSDC Master Catalog

Two Line Element Set (TLE):
1 29103U 95058L   13255.23264020  .06482586  00000-0  37778-1 0  9999
2 29103 070.9701 195.7050 0026537 185.2013 174.9234 15.77660652452423
Source of the keplerian elements: AFSPC